Weather in Huancayo

Peru     12°03′30″S   75°12′44″W
temp.,
°C
wind,
m/s
gust,
m/s
humid.,
%
clouds,
%
prec.,
mm/h
press.,
hPa
HPBL,
m
29 november, mon
mon2901:00+9ssw1177100 0.4 1014386
04:00+8wsw117896 0.3 1014437
07:00+8wnw1179100 0.7 1016246
10:00+10n126592 0.5 1016902
13:00+13ne325896 1.6 10111203
16:00+13ne325898 1.4 10091091
19:00+8sw3385100 4.3 1015395
22:00+6wnw2291100 3.6 1021241
30 november, tue
tue3001:00+6ne1188100 3.9 1018180
04:00+6nne118591 0.0 101794
07:00+8s1174100 0.0 1018320
10:00+10wsw016296 0.1 10161002
13:00+13ne2255100 0.6 10111409
16:00+12ne336399 0.8 1009798
19:00+9e227597 1.4 101330
22:00+9s117990 0.4 1015117
1 december, wed
wed101:00+7nw3486100 1.0 1016366
04:00+7wnw1284100 0.6 1016199
07:00+8nw2279100 0.8 1018382
10:00+11w1162100 0.1 10151123
13:00+14n3253100 0.8 10111471
16:00+14nnw1151100 0.3 10081456
19:00+10e2276100 0.9 101253
22:00+9s1279100 0.8 1016164
2 december, thu
thu201:00+8s2284100 1.6 101698
04:00+7s2283100 0.1 101679
07:00+8sse1175100 0.2 1017244
10:00+10nw2269100 0.4 1017668
13:00+11ene2162100 1.3 1014877
16:00+13ese3257100 0.4 10101183
19:00+8se3482100 1.1 101482
22:00+8s118197 0.4 101750
3 december, fri
fri301:00+7nne118698 0.4 101624
04:00+5ene1187100 0.0 101610
07:00+8nnw117744 0.0 1017264
10:00+13sw225334 0.1 10131407
13:00+16ne3341100 1.1 10071961
16:00+13ene5555100 1.6 1006662
19:00+8ssw4683100 3.5 1015386
22:00+7nw1080100 0.6 1018219